Location: Sunny Point
(33.0946°N, 85.0574°W)
Time: 07:16:11
(UTC+00:00)

Envisat - Pass Details

Date: 27 May 2024
Orbit: 762 x 764 km, 98.3° (Epoch: 20 June)

Event Time Altitude Azimuth Distance (km) Brightness Sun altitude
Rises 09:04:39 0° 9° (N) 3,230 7.0 -16.4°
Reaches altitude 10° 09:06:58 10° 7° (N) 2,300 6.1 -16.1°
Maximum altitude 09:11:59 70° 285° (WNW) 812 3.0 -15.3°
Enters shadow 09:15:40 19° 205° (SSW) 1,768 4.4 -14.7°
